Weather in Petrilovo

Russia / Kostroma Oblast     57°50′10″N   40°39′16″E
temp.,
°C
wind,
m/s
gust,
m/s
humid.,
%
clouds,
%
prec.,
mm/h
press.,
hPa
HPBL,
m
7 may, fri
fri700:00+9wsw51183100 0.4 1005724
03:00+6sw498981 0.4 1006363
06:00+7sw4890100 0.0 1007637
09:00+7wsw4675100 0.0 1008917
12:00+10sw5762100 0.1 10091489
15:00+11wsw685550 1.1 10101656
18:00+12wsw375416 0.4 1010664
21:00+7ssw34710 0.5 101251
8 may, sat
sat800:00+5s4874100 0.0 1013124
03:00+5sse4107399 0.0 1013198
06:00+7sse51273100 0.0 1013309
09:00+10sse61365100 0.0 1012757
12:00+13sse81354100 0.0 10092231
15:00+11se81667100 0.2 10071591
18:00+9sse91785100 3.4 10051410
21:00+9sse81689100 4.5 1003966
9 may, sun
sun900:00+10sse71393100 0.4 1001764
03:00+9s51192100 0.5 1002500
06:00+8sw3697100 0.6 1003403
09:00+6wnw6993100 1.7 1006519
12:00+5nw61197100 0.8 1011708
15:00+7nw5981100 0.8 10151144
18:00+9nnw69745 0.1 10181115
21:00+5nw228586 0.1 102125
10 may, mon
mon1000:00+3wnw22880 0.0 102311
03:00+2wnw11890 0.0 102610
06:00+4w12807 0.0 102868
09:00+10w225921 0.0 1029487
12:00+13w33435 0.0 10291401
15:00+15wsw34435 0.0 10291830
18:00+14sw245770 0.0 1028304
21:00+10wnw237291 0.0 103045
11 may, tue
tue1100:00+9sw227036 0.0 103026
03:00+7wsw227866 0.0 103117
06:00+9sw2378100 0.0 103188
09:00+14sw4567100 0.0 1032433
12:00+18sw455625 0.0 10321064
15:00+19sw455352 0.0 10311211
18:00+18sw246421 0.0 1030289
21:00+13sw227948 0.0 103016